Simultaneous Nadir Overpasses (SNOs) Predictions

Prediction of SNOs between METOP-B and NOAA-19 Satellite Orbit:

Table of predicted SNOs for the next 14.0 days since TLE Epoch: 8/25/2014
Index Date (METOP-B) Time (METOP-B) Lat,Lon (METOP-B) SZA (METOP-B ) Date (NOAA-19) Time (NOAA-19) Lat,Lon (NOAA-19) SZA (NOAA-19 ) Distance(km) Time Diff (sec)
1 09/03/2014 22:42:23 74.43,-164.86 67.08 09/03/2014 22:41:10 74.42,-165.69 67.09 25.01 73
2 09/03/2014 23:33:09 -74.25, 2.00 113.09 09/03/2014 23:32:07 -74.23, 2.07 113.10 2.93 62
3 09/04/2014 00:23:49 74.21, 169.25 66.90 09/04/2014 00:23:09 74.20, 169.37 66.89 3.73 40
4 09/04/2014 01:14:31 -74.23, -23.39 113.08 09/04/2014 01:14:10 -74.21, -23.39 113.10 2.29 21
5 09/04/2014 02:05:11 74.19, 143.85 66.90 09/04/2014 02:05:12 74.18, 143.92 66.89 2.12 1
6
